User: anonymous   Login
Location: Observatorio Las Palmas
(29.0667°N, 110.9333°W)
Time: 09:01:37
(UTC-07:00)
Language:

Skynet4D Del rocket - Orbit

View from above orbital plane
View from above orbital plane
View from above satellite
View from above satellite

Ground track
Ground track

The orbit data is extracted from the following two-line orbital elements,

1 25135U 98002B   15064.58961572  .00000275  00000-0  13269-3 0  9992
2 25135 026.8836 256.4217 0356502 150.0727 254.8243 13.62292851854623
Epoch (UTC): 05 March 2015 14:09:02
Eccentricity: 0.0356502
inclination: 26.8836°
perigee height: 763 km
apogee height: 1291 km
right ascension of ascending node: 256.4217°
argument of perigee: 150.0727°
revolutions per day: 13.62292851
mean anomaly at epoch: 254.8243°
orbit number at epoch: 85462

The dashed part of the orbit path shows where the satellite is in the earth's shadow,  

DLR